"Pseudo-MPEC" for C0JAWC5

Created 2023 Sep 21 1:22:04 UT using Find_Orb

Click here for an explanation of pseudo-MPECs

 
 Astrometry: 
     C0JAWC5 KC2021 06 06H!Y8;4pP25C4u)A0-HVr(2sZ(Wu3l;NmtA.c79uM\ce*2s,hE5TIF51
     C0JAWC5  C2021 08 037PD$V7?^^n%m1q,`xBIT--fZ9/N=xQTNPY^ARC%FL1MXq%@YbMBAF51
     C0JAWC5  C2021 08 03/I!![)QnhrFeQGA$Xo6*tkJ.SR.OMq,vw-QXj\X.'C`N?`4TjbEoF51
     C0JAWC5  C2021 08 03pR!$(Nuh$sO0+?lfxUmuou:3[(gkgAstrometryO;?P@!Xoi\BF(F51
     C0JAWC5  C2021 08 31^9n6Hae=6ZPKbqQ-8IX0i3h8W%5OK=ge#@C]#gg?9sMQSvcd?w,WF51
     C0JAWC5  C2021 08 31.eF]kcK/((*.%g$(/lHH?uyrK=\j:C!H.Hredacted;_yedcnmmVF51
     C0JAWC5 KC2021 09 07r4[UC'WEF,yrWUG0RHX`Jq:6\#*OJ:!^O0\Vg'VsOPv^Q,6TP$6DF51
     C0JAWC5  C2022 08 18:r!x!KmVdBgyT'/(b^2^vdkfr/=vyakqcCLhj),3J,f$hu,P4shdF51
     C0JAWC5  C2022 08 18]3Q/Cn_B/*nL(t;r#!+M.K,vGl5eny(P1%xK!bUI4]D)V!+;Omg5F51
     C0JAWC5  C2022 08 18ih[o#!cV#Eai$9n!IOjasMqO22$%ymnA(=x)[U-ZpP_/DeeGn/.BF51
     C0JAWC5  C2022 08 18\%qIlONEvwg$ne.Oto0DEo.C4sD\\S$r2OA$XJJT!kYo0Ay+6/)5F52
     C0JAWC5  C2022 08 28X72FdV(F/a?vj:TI$#?I6iZWh?mwH\/`nUJK7K4xj0i^el#Covm`F52
     C0JAWC5  C2022 08 28e'=SFe*n!9TpHYA`*/^N@'2_si\CfO)QVclick_?iKA]Y7+82EvAF52
     C0JAWC5  C2022 08 28*J;e79]\Ff?Rws7SmZ$4q^%#PkHMf,w(Lh\eIs!o:t!7GlD:'#(xF52
     C0JAWC5  C2022 08 28;aUk,XrsJUj87/aed1%82p`Y:T`=7^2x:$+Lv$jY[9JDTicen!R;F51
     C0JAWC5  C2022 08 2813pq*a/=_IADuqH@r[Ue`y?O_x7p3)]s4D(Q*,LN[wQ!ofV40T0LF51
     C0JAWC5  C2022 09 019bD*XX,;YP`;[jG-r]^#^.DoBJ%PZ+CvPMU.3qIl!/.\S/Cl']Q5F51
     C0JAWC5  C2022 09 01'2R%bf0,c`YrHGCr9D[!Zi1WI#^,.N4.:@g`R.#lBu;irg\p^PkIF51
     C0JAWC5  C2022 09 01-nF!iNiherewh/?Doq-sc)HXrAE.7HFBmo)bP)=?W,py;5xd`+]$F51
     C0JAWC5  C2022 09 014`\`'\Hr*o:QDmnM03_*81s6vZu3^/s@ITVrM:gAl_?_TGpA`f%xF51
     C0JAWC5  C2022 09 22xyitYd-qN[7w5HIb6^TvWn*$Kd*Q=(*,VcJZRyKPhsS_\jCj@T^$F51
     C0JAWC5  C2022 09 22YOwaZ:id'K;#=A-_:;DP+Au%v3)/j2,QGGt1GtmL8.*/OkID,mNkF51
     C0JAWC5  C2022 09 22i#pe7St[f23',forx)[kUsT_]]+,'7y0]h3S-$a'_MbK:CX8L9^(F51
     C0JAWC5  C2022 09 22flAIOLUW/A!QT._3o@rv\DjV]RIA453V9b\HsTW://IH\gh.%,.+F51
     C0JAWC5 KC2022 10 24bk]efrUy(ndpisN*(7-F9Ch[Q,`8nkT`)@LUu]Cv!9etAIW2VWKSF52
     C0JAWC5 KC2022 11 16Ea_+GwmQ:vq@QFhivC]rXeOkv,pO,W47Y1kLc_H4ZS[Zu$1r;MjtF51
     C0JAWC5 KC2023 06 258??45d2Gx#0I,Mb.aB;v#6U4.paSDSLchRSR*vZnE@A-N]*i3-YhF51
     C0JAWC5  C2023 07 15uA96t]i!GW-cLTHhG.8.\O8%by^+NYxdT[T/\e6OBDwD2mE@+.VZF52
     C0JAWC5  C2023 07 15F[ws\NSZ9aoGp,22B;/glSS`ytk-P-f#a__68s)yhPot\qXk^Jx7F52
     C0JAWC5  C2023 07 150QeV8p\F\9auRQ4KZgmd7h[M_9w=ph(H.^`$t`:gH5?y#D4k7R(YF52
     C0JAWC5  C2023 08 183UrMoDC8LEFd,J8ld%:SDnWB\Y4^9Hm1(@[L=sRc?pIC.;ag0:e$F51
     C0JAWC5  C2023 08 18K-`MgN1ZP$EYx_pSlYr(o%w0l-%XeP?%$`.i@^nf=FFW#OL?WBD/F51
     C0JAWC5  C2023 08 18,7p1I\bh;@OIcI.1i%X66t69JbY[^#Dkn;=w`l8i8$3()kr@@.3DF51
     C0JAWC5  C2023 08 21JlY/J$T?V6pOvbg?XCW\W9f1`vsM@D@T-D2aQ=R!F(=4Gv1YXhLxF52
     C0JAWC5  C2023 08 21E^8A1fU`pb^(I3A-hAi+Uk[g$n/PlTh_P%l/?L#xOW1pdS8.^GytF52
     C0JAWC5  C2023 08 21h#hR-4`vs6PR\_qxeNv;,a1J:#XS%1MGhoyv)`LWP/3;[1[/bv;#F52
     C0JAWC5  C2023 08 21afexKD0RkxGktP+-[VqHLRZ-av)Wyjwq/uBexplanationS+tE*AF52
     C0JAWC5  C2023 08 21jXLO33di*3;6GHRC+/vv`n+[j9Ae8%`(7f1Ju:^./u/XMR=6)9vwF52
     C0JAWC5  C2023 08 21y1A8R,PWG2o3C?g3L'CG6UNCrdLf:#eKDWX+-5,s^sXa4k3o44`CF52
     C0JAWC5  C2023 08 21]Z/\tfGyd$WIeGU8+O.cjv/Wlwk,Aai7ARs;tn\RL,=Ma/Xj=vZ9F52
     C0JAWC5  C2023 08 24+7_\\k#CZnd2gY*aNg9TM0'4s9%6i9*NQi135hWo]u\JU@f]aY74F51
     C0JAWC5  C2023 09 06.30270 23 12 21.14 +03 31 17.1    ~9KIb 21.4 GVNEOCPG96
     C0JAWC5  C2023 09 06.30834 23 12 21.03 +03 31 17.2    ~9KIb 21.3 GVNEOCPG96
     C0JAWC5  C2023 09 13Dr#=e\T/u^]L'H`7qfNlHR!B^*ROrv!u9AWGP-_gYg6s]'DIU7K-F51
     C0JAWC5  C2023 09 13lHQ,XZ$.\TG#eI-rbt,O0%g7J6F;T-dZ8plst/(!fnJs@3mLXR)IF51
     C0JAWC5  C2023 09 13VtpqjJXT^KJPxx*-[+MOVICmv9%(CO^qE/aIAo-l?7jqAQRL$[\$F51
     C0JAWC5* C2023 09 19.31733923 07 46.250+03 19 39.04   ~9J8M 21.58GVNEOCPV00
     C0JAWC5  C2023 09 19.32285223 07 46.132+03 19 38.86   ~9J8M 21.79GVNEOCPV00
     C0JAWC5  C2023 09 19.32835123 07 46.016+03 19 38.50   ~9J8M 21.30GVNEOCPV00
     C0JAWC5  C2023 09 19.33384923 07 45.880+03 19 38.21   ~9J8M 21.56GVNEOCPV00
     C0JAWC5 KC2023 09 19.39382223 07 44.605+03 19 34.54   ~9JA7 21.37GVNEOCPV06
     C0JAWC5 KC2023 09 19.39867423 07 44.508+03 19 34.21   ~9JA7 21.46GVNEOCPV06
     C0JAWC5 KC2023 09 19.40353323 07 44.418+03 19 33.96   ~9JA7 21.33GVNEOCPV06
     C0JAWC5 KC2023 09 20.19958 23 07 27.90 +03 18 45.4    ~9K67 22.0 RoNEOCP291
     C0JAWC5 KC2023 09 20.21609 23 07 27.56 +03 18 44.6    ~9K67 21.5 RoNEOCP291
     C0JAWC5 KC2023 09 20.23259 23 07 27.26 +03 18 43.5    ~9K67 21.9 RoNEOCP291

Station data:
(291) LPL/Spacewatch II  (N31.961669 W111.599905)  US/Arizona.  Observers J.
   V. Scotti, R. S. McMillan. 1.8-m f/2.7 reflector + CCD.
(F51) Pan-STARRS 1, Haleakala  (N20.707234 W156.255910)  US/Hawaii.
   Observers J. Bulger, T. Lowe, A. Schultz, M. Willman. Measurers K.
   Chambers, S. Chastel, T. de Boer, L. Denneau, J. Fairlamb, H. Flewelling,
   M. Huber, C.-C. Lin, E. Magnier, Y. Ramanjooloo, R. Wainscoat, R. Weryk.
   1.8-m Ritchey-Chrétien + CCD.
(F52) Pan-STARRS 2, Haleakala  (N20.707382 W156.255910)  US/Hawaii.
   Observers J. Bulger, T. Dukes, T. Lowe, A. Schultz, M. Willman. Measurers
   K. Chambers, S. Chastel, T. de Boer, L. Denneau, J. Fairlamb, H.
   Flewelling, M. Huber, C.-C. Lin, E. Magnier, Y. Ramanjooloo, R. Wainscoat,
   R. Weryk. 1.8-m Ritchey-Chrétien + CCD.
(G96) Mt. Lemmon Survey  (N32.442751 W110.788720)  US/Arizona.  Observers T.
   A. Pruyne, B. M. Africano, E. J. Christensen, G. A. Farneth, D. C. Fuls,
   A. R. Gibbs, A. D. Grauer, H. Gröller, J. A. Johnson, R. A. Kowalski, S.
   M. Larson, G. J. Leonard, D. Rankin, R. L. Seaman, F. C. Shelly, K. W.
   Wierzchoś. 1.5-m reflector + 10K CCD.
(V00) Kitt Peak-Bok  (N31.963125 W111.600190)  US/Arizona.  Observers T. A.
   Pruyne, B. M. Africano, E. J. Christensen, G. A. Farneth, D. C. Fuls, A.
   R. Gibbs, A. D. Grauer, H. Gröller, J. A. Johnson, R. A. Kowalski, S. M.
   Larson, G. J. Leonard, D. Rankin, R. L. Seaman, F. C. Shelly, K. W.
   Wierzchoś. 2.25-m reflector + 4x4K mosaic CCD.
(V06) Catalina Sky Survey-Kuiper  (N32.416844 W110.732550)  US/Arizona.
   Observers T. A. Pruyne, B. M. Africano, E. J. Christensen, G. A. Farneth,
   D. C. Fuls, A. R. Gibbs, A. D. Grauer, H. Gröller, J. A. Johnson, R. A.
   Kowalski, S. M. Larson, G. J. Leonard, D. Rankin, R. L. Seaman, F. C.
   Shelly, K. W. Wierzchoś. 1.55-m reflector + CCD.

Orbital elements:  C0JAWC5
   Perihelion 2026 Jan 10.77385 +/- 0.00901 TT = 18:34:20 (JD 2461051.27385)
Epoch 2023 Sep 20.0 TT = JDT 2460207.5   Sa: 0.0707              AutoNEOCP
M 349.95876447 +/- 0.0007           (J2000 ecliptic)
n   0.01190038 +/- 7.52e-7          Peri.   78.28346 +/- 0.0008
a  19.0003669 +/- 0.000801          Node   331.20577 +/- 0.000026
e   0.6661038 +/- 1.24e-5           Incl.   21.20269 +/- 0.000042
P  82.82                   H 13.18  G  0.15   U  3.3
q 6.34414901 +/- 4.46e-5    Q 31.6565849 +/- 0.00157
From 56 observations 2021 June 6-2023 Sept. 20; mean residual 0".19
Residuals in arcseconds: 
210606 F51  .32+  .18-    220901 F51  .20-  .11-    230821 F52  .42-  .19-    
210803 F51  .02-  .08+    220922 F51  .01-  .01-    230821 F52  .06+  .10-    
210803 F51  .06+  .34+    220922 F51  .21+  .24-    230824 F51  .05-  .01-    
210803 F51  .17-  .21+    220922 F51  .47-  .05-    230906 G96  .17-  .09-    
210831 F51  .29-  .03+    220922 F51  .11+  .00     230906 G96  .00   .26+    
210831 F51  .10+  .17-    221024 F52  .20-  .19+    230913 F51  .01-  .10+    
210907 F51  .00   .15-    221116 F51  .12+  .04+    230913 F51  .06+  .08+    
220818 F51  .23+  .41-    230625 F51  .10+  .01-    230913 F51  .11+  .00     
220818 F51  .06+  .10+    230715 F52  .26-  .01-    230919 V00  .22+  .05-    
220818 F51  .01-  .04+    230715 F52  .02+  .43-    230919 V00  .22+  .11+    
220818 F52  .26+  .11+    230715 F52  .31-  .13-    230919 V00  .23+  .08+    
220828 F52  .17-  .01+    230818 F51  .00   .01-    230919 V00  .05-  .13+    
220828 F52  .14+  .04-    230818 F51  .06-  .01-    230919 V06  .03-  .13+    
220828 F52  .03+  .08+    230818 F51  .04+  .16-    230919 V06  .05+  .10+    
220828 F51  .16-  .09+    230821 F52  .41+  .12+    230919 V06  .25+  .14+    
220828 F51  .12-  .06+    230821 F52  .13+  .01-    230920 291  .12-  .25+    
220901 F51  .02-  .03+    230821 F52  .18+  .04+    230920 291  .03+  .47+    
220901 F51  .02+  .09+    230821 F52  .22-  .26+    230920 291  .78+  .38+    
220901 F51  .04-  .03-    230821 F52  .16+  .07+    

Ephemerides (geocentric):
Date (UTC) HH   RA             Dec           delta  r     elong  mag " sig PA
---- --------  ------------   ------------  ------ ------ -----  --- --------
2023 09 21 01  23 07 10.406   +03 17 53.76  6.8262 7.8122 168.3 22.0 .050  60
2023 09 21 02  23 07 09.544   +03 17 51.17  6.8262 7.8121 168.3 22.0 .050  60
2023 09 21 03  23 07 08.682   +03 17 48.58  6.8261 7.8119 168.2 22.0 .050  60
2023 09 21 04  23 07 07.820   +03 17 45.99  6.8261 7.8118 168.2 22.0 .050  60
2023 09 21 05  23 07 06.959   +03 17 43.41  6.8261 7.8117 168.2 22.0 .050  60
2023 09 21 06  23 07 06.097   +03 17 40.81  6.8261 7.8116 168.1 22.0 .050  60
2023 09 21 07  23 07 05.236   +03 17 38.22  6.8261 7.8114 168.1 22.0 .050  60
2023 09 21 08  23 07 04.375   +03 17 35.63  6.8261 7.8113 168.1 22.0 .050  60
2023 09 21 09  23 07 03.514   +03 17 33.04  6.8261 7.8112 168.0 22.0 .050  60
2023 09 21 10  23 07 02.653   +03 17 30.44  6.8261 7.8111 168.0 22.0 .050  60
2023 09 21 11  23 07 01.793   +03 17 27.84  6.8261 7.8109 168.0 22.0 .050  60
2023 09 21 12  23 07 00.933   +03 17 25.25  6.8261 7.8108 167.9 22.0 .050  60
2023 09 21 13  23 07 00.073   +03 17 22.65  6.8260 7.8107 167.9 22.0 .050  60
2023 09 21 14  23 06 59.213   +03 17 20.05  6.8260 7.8106 167.9 22.0 .050  60
2023 09 21 15  23 06 58.353   +03 17 17.45  6.8260 7.8104 167.8 22.0 .051  60
